Preview of NWS' New Version of Forecast
This preview is not operational and should not be used for support decisions.

Regional Weather Roundup (RWR)

Issued by Gray - Portland, ME (GYX)

                            
017 
ASUS41 KGYX 261010
RWRGYX
WEATHER ROUNDUP FOR MAINE AND NEW HAMPSHIRE
NATIONAL WEATHER SERVICE GRAY ME
600 AM EDT TUE MAR 26 2019

MEZ002-005-006-010-012-015-018-020-021-024-026-027-029-261100-
MAINE
  
CITY           SKY/WX    TMP DP  RH WIND       PRES   REMARKS
PORTLAND       FAIR      21  10  62 CALM      30.17S                  
SANFORD        FAIR      13  11  92 CALM      30.18R                  
BAR HARBOR     FAIR      22   7  52 W5        30.14S                  
WISCASSET      FAIR      16  12  84 CALM      30.18R                  
ROCKLAND       FAIR      17  13  84 W3        30.16R                  
FRYEBURG       FAIR      19   2  47 NE8       30.16R                  
LEWISTONAUBURN FAIR      15  10  80 N3        30.17R                  
AUGUSTA        FAIR      23   4  44 NW7       30.16R                  
WATERVILLE     FAIR      24   5  44 NW9       30.13R                  
BANGOR         FAIR      22   3  44 W6        30.15R                  
GREENVILLE       N/A     14   0  53 NW12      30.05R WCI   0          
MILLINOCKET    FAIR       8   2  76 NW5       30.13R                  
HOULTON        FAIR      11   1  64 CALM      30.09R                  
PRESQUE ISLE   FAIR      13   4  67 NW7       30.10R                  
FRENCHVILLE    FAIR      10  -2  58 NW10      30.04R WCI  -4          
CARIBOU        FAIR      11   2  67 NW9       30.07R                  
$$

NHZ002-005-008-009-011-012-014-261100-
NEW HAMPSHIRE
  
CITY           SKY/WX    TMP DP  RH WIND       PRES   REMARKS
PORTSMOUTH     CLEAR     25   9  50 W7        30.17R                  
ROCHESTER      FAIR      22   9  57 NW3       30.17R                  
NASHUA         FAIR      21  15  78 CALM      30.20R                  
MANCHESTER     FAIR      23  14  68 CALM      30.18R                  
CONCORD        FAIR      17  13  84 CALM      30.18R                  
LACONIA        FAIR      17  10  74 W3        30.17R                  
PLYMOUTH       FAIR      16  11  80 CALM      30.18R                  
BERLIN         FAIR       2  -3  80 CALM      30.14R                  
WHITEFIELD     FAIR       4  -3  73 CALM      30.15R                  
JAFFREY        FAIR      21  12  68 CALM      30.15R                  
KEENE          FAIR      16  14  92 CALM      30.20R                  
LEBANON        FAIR      17  10  74 NE3       30.19R                  
MT WASHINGTON  FOG       -4  -4 100 NW53G61     N/A  VSB 1/8 WCI -37  
$$

VTZ005-007-008-261100-
VERMONT
  
CITY           SKY/WX    TMP DP  RH WIND       PRES   REMARKS
ST JOHNSBURY     N/A      7   3  84 MISG      30.19R                  
MONTPELIER     FAIR      17   6  62 N5        30.20R                  
BURLINGTON     FAIR      24   6  46 N3        30.24R                  
$$

MAZ007-012-024-CTZ003-RIZ002-NYZ038-NYZ072-261100-
SOUTHERN NEW ENGLAND AND NY
  
CITY           SKY/WX    TMP DP  RH WIND       PRES   REMARKS
BOSTON         FAIR      33   7  33 N7        30.19R                  
WORCESTER      FAIR      27   3  35 N9        30.14R                  
NANTUCKET      FAIR      31  26  82 NE10      30.12R                  
PROVIDENCE     FAIR      32   9  38 N13       30.16R                  
HARTFORD       FAIR      26   5  40 N6        30.19R                  
ALBANY         FAIR      24   8  50 CALM      30.23R                  
NEW YORK CITY  FAIR      34   4  28 N14       30.18R                  
$$

ANZ081-ANZ082-ANZ150-NHZ014-MEZ023>029-261100-
COASTAL MARINE OBSERVATIONS
  
STATION/POSITION TIME  TEMP    WIND        PRES    WAVE
                       AIR SEA DIR/SP/G            HT/PER
                 (UTC) (F)     (DEG/KT/KT) (MB)    (FT/S)
MOUNT DESERT ROC 0900   31     290/ 11/ 13 1020.5R
MATINICUS ROCK   0900   31     320/ 11/ 13 1020.4R
ISLE OF SHOALS   0900   33     310/  8/  8 1021.2R
CASHES LEDGE BUO 0950   33 39              1021.4R   3/ 5
$$

.............KEY..............
   WCI - WIND CHILL
   TC  - TEMPERATURE IN CELSIUS
   VSB - VISIBILITY IN MILES
   HX  - HEAT INDEX
   FAIR- INDICATES FEW OR NO CLOUDS BELOW 12,000 FT, WITH NO 
         SIGNIFICANT WEATHER AND/OR OBSTRUCTIONS TO VISIBILITY.